Location: Boissi�res
(45.2500°N, 2.3667°E)
Time: 07:30:02
(UTC+00:00)

USA 234 - Pass Details

Date: 03 March 2021
Orbit: 1102 x 1105 km, 123.0° (Epoch: 18 April)

Event Time Altitude Azimuth Distance (km) Brightness Sun altitude
Exits shadow 21:27:20 44° 336° (NNW) 1,494 4.1 -38.7°
Drops below altitude 10° 21:33:17 10° 270° (W) 2,961 6.0 -39.6°
Sets 21:35:52 0° 264° (W) 3,918 6.7 -39.9°
